Portada
METAR-TAF:

METAR-TAF

Aeroports :

Mersing, Malàisia

latitud: 02-23-00N, longitud: 103-51-34E, altitud: 3 m

Observació

L'informe es va fer fa 42 minuts, a les 12:00 UTC
Vent 4 kt del Est/Sud-Est, variant entre Est/Sud-Est i Sud-Oest
Temperatura 26°C
Humitat 94%
Pressió 1005 hPa

METAR: WMAU 141200Z AUTO 12004KT 110V230 //// // ////// 26/25 Q1005

Hora: 20:42 (12:42 UTC)


TAF: manca

Observacions i pronòstics meteorològics de més de 4000 aeroports (METAR i TAF).

Les estacions disponibles són els punts grocs i vermells al mapa.

Posi el ratolí al punt desitjat per veure el nom de l'estació.

Feu clic per veure les observacions i els pronòstics meteorològics.

Per canviar el mapa: feu clic els botons verds amb una creu de color negre per apropar; al botó verd amb un guió per allunyar la imatge; o en les fletxes verdes per a mapes adjacents.


METAR-TAF: